Regional Weather Roundup
Issued by NWS Little Rock, AR

Home | Current Version | Previous Version | Graphics & Text | Print | Product List | Glossary On
Versions: 1 2 3 4 5 6 7 8 9 10 11 12 13 14 15 16 17 18 19 20 21 22 23 24 25 26 27 28 29 30 31 32 33 34 35 36 37 38 39 40 41 42 43 44 45 46 47 48 49 50
000
ASUS44 KLZK 180105
RWRLZK

WEATHER ROUNDUP FOR ARKANSAS
NATIONAL WEATHER SERVICE LITTLE ROCK AR
700 PM CST WED JAN 17 2018

NOTE: "FAIR" INDICATES FEW OR NO CLOUDS BELOW 12,000 FEET WITH NO
SIGNIFICANT WEATHER AND/OR OBSTRUCTIONS TO VISIBILITY.

ARZ001-003-010-029-180200-
NORTHWEST ARKANSAS

CITY           SKY/WX    TMP DP  RH WIND       PRES   REMARKS
FAYETTEVILLE   CLOUDY    23   7  50 SW5       30.55S WCI  17
FORT SMITH     CLOUDY    25   9  50 N5        30.62F WCI  19
HARRISON       CLOUDY    21  10  62 CALM      30.54S
BENTONVILLE    CLOUDY    20   9  62 CALM      30.56
ROGERS         CLOUDY    22   7  52 SW3       30.54S
SILOAM SPGS    CLOUDY    23   7  50 SW5       30.56S WCI  17
HIGHFILL       CLOUDY    24   6  46 SW3       30.54S
SPRINGDALE     CLEAR     27   5  39 W3        30.55S
$$

ARZ004-005-016-180200-
NORTH CENTRAL ARKANSAS

CITY           SKY/WX    TMP DP  RH WIND       PRES   REMARKS
BATESVILLE     FAIR      23  10  57 S5        30.62F WCI  17
FLIPPIN        CLOUDY    18  10  71 CALM      30.59F
MTN HOME       CLOUDY    18  10  71 CALM      30.56F
$$

ARZ040-041-180200-
WEST CENTRAL ARKANSAS

CITY           SKY/WX    TMP DP  RH WIND       PRES   REMARKS
MENA           CLOUDY    30   9  40 CALM      30.57S
MOUNT IDA      CLEAR     27   9  46 CALM      30.57F
$$

ARZ009-017-025-026-028-180200-
NORTHEAST ARKANSAS

CITY           SKY/WX    TMP DP  RH WIND       PRES   REMARKS
JONESBORO      FAIR      19  16  88 S6        30.65S WCI  11
NEWPORT        FAIR      20  14  77 S9        30.65F WCI   9
WALNUT RIDGE   FAIR      20  14  77 S8        30.64F WCI  10
BLYTHEVILLE    FAIR      10   7  87 SW6       30.66F WCI   0
$$

ARZ022-023-033-042-044-180200-
CENTRAL ARKANSAS

CITY           SKY/WX    TMP DP  RH WIND       PRES   REMARKS
LITTLE ROCK    FAIR      18  11  74 S3        30.66F
N LITTLE ROCK    N/A     20  13  74 CALM      30.70F
JACKSONVILLE   FAIR      18  11  73 CALM      30.64F
SEARCY         FAIR      18  12  77 S5        30.66F WCI  11
HOT SPRINGS    FAIR      27  11  51 SE6       30.63S WCI  20
RUSSELLVILLE   CLOUDY    20  11  68 CALM      30.62F
CLINTON        FAIR      21  12  68 CALM      30.62S
$$

ARZ036-180200-
EAST ARKANSAS

CITY           SKY/WX    TMP DP  RH WIND       PRES   REMARKS
WEST MEMPHIS   FAIR      12  10  92 SW3       30.66F
$$

ARZ050-053-066-070-073-180200-
SOUTHWEST ARKANSAS

CITY           SKY/WX    TMP DP  RH WIND       PRES   REMARKS
ARKADELPHIA    FAIR      20   9  62 CALM      30.67F
CAMDEN         FAIR      19  12  73 CALM      30.67S
TEXARKANA      FAIR      23   8  52 SE5       30.64F WCI  17
EL DORADO      FAIR      22  14  71 CALM      30.66F
DE QUEEN       CLEAR     23  10  57 CALM      30.62S
$$

ARZ056-057-069-180200-
SOUTHEAST ARKANSAS

CITY           SKY/WX    TMP DP  RH WIND       PRES   REMARKS
PINE BLUFF     FAIR      18  10  71 CALM      30.67F
STUTTGART      FAIR      16  11  80 SE3       30.67F
MONTICELLO     FAIR      20   9  62 CALM      30.67F

$$





USA.gov is the U.S. government's official web portal to all federal, state and local government web resources and services.